Bennington, VT

12:40 AM EDT on August 17, 2017 (GMT -0400)
Morse State

Weather History for KDDH - June, 2014

Change the Weather History Date:

Saturday, June 21, 2014

  Actual Average Record
Temperature  
Mean Temperature 58 °F 65 °F  
Max Temperature 72 °F 77 °F 90 °F (2012)
Min Temperature 43 °F 54 °F 41 °F (2004)
Degree Days  
Heating Degree Days 7 2  
Month to date heating degree days 44 84  
Since 1 June heating degree days 44 84  
Since 1 July heating degree days 7295 7223  
Cooling Degree Days 0 2  
Month to date cooling degree days 27 33  
Year to date cooling degree days 43 47  
Since 1 June cooling degree days 27 33  
Growing Degree Days 8 (Base 50)    
Moisture  
Dew Point 47 °F    
Average Humidity 69    
Maximum Humidity 93    
Minimum Humidity 44    
Precipitation  
Precipitation 0.00 in 0.14 in 0.54 in (2003)
Month to date precipitation 1.58 2.99  
Year to date precipitation 14.41 18.06  
Sea Level Pressure  
Sea Level Pressure 29.96 in    
Wind  
Wind Speed 2 mph (North)    
Max Wind Speed 12 mph    
Max Gust Speed 21 mph    
Visibility 10 miles    
Events      
T = Trace of Precipitation, MM = Missing Value Source: NWS Daily Summary

Daily Weather History Graph

Daily Weather History Graph

Search for Another Location

Airport or City:

Trip Planner

Search our weather history database for the weather conditions in past years. The results will help you decide how hot, cold, wet, or windy it might be!

Date:

Astronomy

Jun. 21, 2014 Rise Set
Actual Time 5:14 AM EDT 8:35 PM EDT
Civil Twilight 4:39 AM EDT 9:10 PM EDT
Nautical Twilight 3:53 AM EDT 9:56 PM EDT
Astronomical Twilight 2:56 AM EDT 10:53 PM EDT
Moon 1:32 AM EDT (6/21) 3:04 PM EDT (6/21)
Length of Visible Light 16h 31m
Length of Day
15h 20m
Waning Crescent, 30% of the Moon is Illuminated
Jun 21
Waning Crescent
Jun 27
New
Jul 5
First Quarter
Jul 12
Full
Jul 18
Last Quarter

Hourly Weather History & Observations

Time (EDT) Temp. Dew Point Humidity Pressure Visibility Wind Dir Wind Speed Gust Speed Precip Events Conditions
1:54 AM 46.9 °F 44.1 °F 90% 30.00 in 10.0 mi Calm Calm - N/A   Clear
2:54 AM 46.0 °F 43.0 °F 89% 29.99 in 10.0 mi Calm Calm - N/A   Clear
3:54 AM 45.0 °F 43.0 °F 93% 29.99 in 10.0 mi Calm Calm - N/A   Clear
4:54 AM 46.0 °F 43.0 °F 89% 30.00 in 10.0 mi Calm Calm - N/A   Clear
5:54 AM 44.1 °F 42.1 °F 93% 30.01 in 10.0 mi Calm Calm - N/A   Clear
6:54 AM 51.1 °F 46.9 °F 86% 29.99 in 10.0 mi Calm Calm - N/A   Clear
7:54 AM 55.9 °F 46.9 °F 72% 30.01 in 10.0 mi Calm Calm - N/A   Clear
8:54 AM 62.1 °F 46.9 °F 58% 30.01 in 10.0 mi Calm Calm - N/A   Clear
9:54 AM 64.0 °F 48.0 °F 56% 30.00 in 10.0 mi NE 3.5 mph - N/A   Clear
10:54 AM 66.9 °F 48.0 °F 51% 29.99 in 10.0 mi North - - N/A   Partly Cloudy
11:54 AM 66.9 °F 46.0 °F 47% 29.96 in 10.0 mi WNW 6.9 mph - N/A   Mostly Cloudy
12:54 PM 69.1 °F 46.0 °F 44% 29.94 in 10.0 mi Calm Calm - N/A   Scattered Clouds
1:54 PM 68.0 °F 46.0 °F 45% 29.94 in 10.0 mi North 5.8 mph - N/A   Overcast
2:54 PM 70.0 °F 46.0 °F 42% 29.93 in 10.0 mi North 6.9 mph - N/A   Mostly Cloudy
3:54 PM 70.0 °F 46.9 °F 44% 29.93 in 10.0 mi NNW 3.5 mph - N/A   Overcast
4:54 PM 70.0 °F 46.9 °F 44% 29.92 in 10.0 mi Variable 4.6 mph - N/A   Partly Cloudy
5:54 PM 72.0 °F 48.0 °F 43% 29.91 in 10.0 mi Variable 5.8 mph - N/A   Scattered Clouds
6:54 PM 71.1 °F 48.9 °F 45% 29.91 in 10.0 mi NNW 4.6 mph - N/A   Clear
7:54 PM 64.9 °F 50.0 °F 58% 29.91 in 10.0 mi Calm Calm - N/A   Clear
8:54 PM 57.9 °F 51.1 °F 78% 29.92 in 10.0 mi Calm Calm - N/A   Clear
9:54 PM 53.1 °F 48.0 °F 83% 29.94 in 10.0 mi Calm Calm - N/A   Clear
10:54 PM 53.1 °F 48.0 °F 83% 29.94 in 10.0 mi Calm Calm - N/A   Clear
11:54 PM 53.1 °F 48.9 °F 86% 29.95 in 10.0 mi Calm Calm - N/A   Overcast